Вернуться в каталог

USA 72

АктивенВоенныеHEO
NORAD 21775·PAYLOAD·🇺🇸 United States

Запущен Nov 8, 1991 с Vandenberg Space Force Base

Loading…

Ближайшие Пролёты (ближайшие 24 часа)

TLE

СвежийSource: Space-Track

Эпоха: Sep 14, 2026, 09:19 UTC

1 21775U 91076A   26257.38831059  .00000015  00000-0  00000-0 0  9990
2 21775  63.3473 173.7375 3333135 273.0891  50.0432  5.53396010 47494

Отслеживайте USA 72 в реальном времени с AllMySat

Download on the App Store